Simultaneous Nadir Overpasses (SNOs) Predictions

Prediction of SNOs between AQUA and METOP-B Satellite Orbit:

Table of predicted SNOs for the next 14.0 days since TLE Epoch: 2/13/2025
Index Date (AQUA) Time (AQUA) Lat,Lon (AQUA) SZA (AQUA ) Date (METOP-B) Time (METOP-B) Lat,Lon (METOP-B) SZA (METOP-B ) Distance(km) Time Diff (sec)
1 02/15/2025 05:02:58 -76.94, -77.13 90.50 02/15/2025 05:02:12 -76.94, -77.04 90.49 2.10 46
2 02/15/2025 05:52:18 76.96, 90.48 89.51 02/15/2025 05:52:51 76.99, 90.46 89.54 2.82 33
3 02/17/2025 17:52:26 -76.94, 90.59 91.39 02/17/2025 17:51:18 -76.93, 90.60 91.39 0.84 68
4 02/17/2025 18:41:46 76.96,-101.83 88.63 02/17/2025 18:41:57 76.97,-101.90 88.64 2.29 11
5 02/20/2025 07:31:12 76.96, 65.88 87.72 02/20/2025 07:31:02 76.99, 65.87 87.76 3.40 10
6 02/20/2025 08:20:32 -77.02,-126.68 92.23 02/20/2025 08:21:43 -77.03,-126.64 92.22 1.47 71
7 02/22/2025 20:20:36 76.96,-126.40 86.80 02/22/2025 20:20:08 76.95,-126.57 86.80 4.32 28
8 02/22/2025 21:09:56 -77.02, 41.04 93.16 02/22/2025 21:10:48 -77.04, 41.10 93.14 2.88 52
9 02/25/2025 09:09:59 77.00, 41.15 85.90 02/25/2025 09:09:12 77.00, 41.30 85.90 3.81 47



Historial Predications of SNOs between AQUA and METOP-B
